Location: *
(46.1333°S, 161.2167°W)
Time: 04:30:29
(UTC+00:00)

CSL-04 Debris - Pass Details

Date: 15 July 2020
Orbit: 826 x 848 km, 98.9° (Epoch: 10 August)

Event Time Altitude Azimuth Distance (km) Brightness Sun altitude
Rises 17:37:56 0° 12° (NNE) 3,367 7.9 -7.5°
Reaches altitude 10° 17:40:16 10° 10° (N) 2,439 7.1 -7.2°
Maximum altitude 17:45:41 76° 284° (WNW) 868 4.2 -6.3°
Drops below altitude 10° 17:51:10 10° 198° (SSW) 2,468 6.2 -5.5°
Sets 17:53:33 0° 195° (SSW) 3,409 7.0 -5.1°
